Theta_e
315 316 316 316 316 316 315 315 314 314 314 314 314 316 319 319 322 320 318 319 319 322 324 324 323 323 324 329 334 334 337 339 336 335 329 323 321 317 317 317 316 316 315 315 314
314 315 316 316 316 316 316 315 315 314 314 314 314 315 318 320 323 319 319 318 319 322 324 324 323 323 324 325 326 329 338 337 330 327 325 320 320 318 317 316 315 314 314 314 314
312 314 315 316 316 316 316 316 315 315 314 314 314 314 317 320 322 321 320 319 319 322 324 324 325 327 325 325 323 321 332 326 323 320 320 318 316 316 316 317 316 315 314 314 313
311 312 314 315 316 317 317 316 316 315 315 314 314 314 316 318 321 321 321 319 319 323 324 325 325 326 323 325 321 325 319 321 318 317 318 318 315 316 313 317 315 314 314 313 312
312 311 312 314 316 317 317 317 316 316 315 314 314 313 316 318 322 322 322 321 320 323 324 325 326 325 325 322 321 321 318 316 315 317 314 315 314 313 313 314 315 314 313 312 312
314 311 310 312 314 316 317 317 316 316 316 315 314 313 316 318 323 323 323 321 320 324 325 325 326 325 319 317 319 316 316 315 315 314 313 315 313 315 312 313 313 314 313 312 311
312 314 311 310 313 314 316 317 317 316 316 315 314 313 314 316 323 324 323 322 320 321 323 323 325 325 320 318 317 318 318 317 315 314 313 314 315 314 313 313 313 312 312 311 310
307 312 313 310 311 313 315 317 317 317 316 316 314 313 314 318 318 323 319 318 320 321 322 323 324 323 319 318 319 320 321 324 317 315 313 315 320 313 312 313 312 310 310 309 308
305 307 311 312 310 311 314 316 317 317 316 315 314 313 315 319 321 321 319 318 319 321 323 324 324 320 320 323 324 322 326 322 319 316 315 314 319 312 311 313 311 310 309 308 307
305 306 307 312 311 310 313 316 317 317 316 314 314 315 315 319 319 319 319 319 321 322 322 323 322 322 322 324 328 325 324 322 323 319 316 316 317 312 311 311 311 310 309 307 307
304 305 306 309 313 310 315 317 318 319 318 314 314 315 317 319 319 318 319 320 321 322 323 318 325 326 326 323 323 323 324 324 320 318 317 318 319 313 311 311 310 309 308 306 305
305 305 306 307 313 311 315 319 317 316 318 318 316 315 315 316 318 318 319 320 320 322 319 321 325 324 323 318 321 323 324 323 318 317 319 318 319 314 312 311 310 310 308 306 304
305 305 305 307 313 311 315 318 318 317 316 317 318 318 315 318 318 318 319 320 320 321 321 324 320 319 322 320 321 319 321 319 321 317 316 318 320 315 312 311 309 308 308 306 306
305 305 305 308 312 312 315 317 319 320 315 316 318 318 316 318 317 318 318 319 318 321 319 320 315 316 319 321 320 322 317 318 319 321 323 318 322 318 314 311 308 308 307 306 306
305 305 305 308 313 314 316 316 319 319 317 314 318 317 317 318 316 316 317 318 319 318 319 321 316 316 317 317 316 317 316 317 317 316 315 317 320 320 311 313 311 307 307 306 306
305 306 306 308 312 314 316 317 318 316 316 316 316 315 316 315 314 315 316 318 317 316 314 314 313 315 315 312 313 312 313 313 311 313 317 315 319 317 316 314 312 308 307 306 306
306 307 306 311 312 313 317 317 315 316 313 315 315 314 315 315 313 314 316 318 320 321 319 315 314 313 313 314 313 313 316 317 316 315 315 313 317 318 313 311 311 309 307 306 305
306 307 306 311 312 314 317 315 313 312 313 313 313 314 317 316 315 312 315 317 314 317 316 319 318 314 313 315 316 313 315 320 316 316 316 312 316 317 310 308 308 308 307 305 304
307 308 307 315 313 315 317 316 315 311 311 312 314 315 315 315 316 313 315 316 316 315 322 319 319 311 311 311 314 313 315 314 314 311 313 313 313 311 309 308 306 304 304 303 303
308 308 308 317 315 314 317 316 314 313 315 314 315 315 316 315 316 315 314 313 315 313 314 317 317 311 311 310 310 314 312 315 314 316 314 314 313 316 314 311 307 305 304 303 304
308 311 314 317 314 315 318 316 316 314 314 315 315 315 315 315 314 314 315 313 312 311 313 315 318 312 311 312 312 312 312 313 314 314 315 314 314 312 315 313 311 307 304 303 303
312 312 315 317 313 309 316 316 314 313 314 314 314 314 315 315 315 314 315 313 310 312 315 313 315 314 313 311 309 310 312 314 317 314 312 313 317 312 312 311 309 306 303 303 303
313 315 314 315 313 312 311 314 314 315 314 314 314 314 313 315 317 314 313 311 312 312 316 314 315 315 314 313 311 311 311 312 312 313 314 317 317 309 310 309 307 305 303 302 303
311 312 314 314 310 311 313 313 314 313 313 314 315 313 314 315 313 315 313 312 310 310 311 314 314 319 319 318 314 312 309 312 314 314 314 314 313 311 311 310 305 305 303 302 302
312 311 313 315 314 310 312 312 314 314 313 313 313 313 314 315 316 313 312 312 310 310 312 315 318 314 314 313 312 312 310 311 311 311 315 313 311 311 309 310 306 304 302 301 301
312 311 312 311 312 313 309 312 313 312 313 314 315 315 315 316 316 317 313 312 313 309 313 313 317 314 315 313 313 314 312 309 309 309 310 309 310 308 305 305 304 303 302 301 301
311 311 310 305 309 313 314 311 312 312 313 312 315 317 317 316 314 314 314 312 311 312 313 314 315 316 317 313 313 317 315 312 312 310 311 312 312 307 307 306 305 303 302 301 303
Wind_Speed
8 8 8 9 9 10 11 11 11 13 14 14 13 10 7 4 5 4 5 6 8 8 5 2 6 15 14 11 9 9 5 6 9 13 10 15 8 6 6 9 4 3 14 23 21
10 9 9 10 10 10 11 12 11 12 14 14 13 11 7 2 3 6 6 5 7 6 5 3 13 13 9 6 5 5 3 7 6 9 12 13 9 11 6 12 12 23 26 23 18
11 11 10 10 11 11 11 12 12 12 14 14 13 11 7 2 1 2 6 6 6 5 5 2 10 10 8 7 5 5 3 8 5 13 21 12 10 6 21 5 15 30 26 21 16
12 12 12 12 13 12 12 13 13 11 13 14 14 11 6 1 3 2 5 7 5 5 6 2 5 5 6 5 3 8 9 7 14 14 13 12 12 15 2 5 20 26 25 22 16
13 13 13 13 13 13 13 13 13 12 12 13 13 13 5 3 3 1 4 7 5 4 4 1 7 7 6 8 10 12 9 11 17 20 16 16 11 9 8 19 26 25 22 18 13
14 13 14 14 15 15 13 13 13 13 12 13 13 12 8 3 3 2 3 5 6 10 5 7 6 17 15 8 6 12 23 19 13 14 12 13 8 4 10 23 24 24 21 16 11
16 14 14 15 16 15 14 12 13 13 13 12 12 11 11 10 4 2 4 4 4 4 6 8 5 1 11 15 21 25 17 13 9 7 5 19 3 3 21 23 22 21 20 17 13
14 15 14 15 16 16 15 13 11 13 13 11 10 10 8 4 8 3 2 0 3 3 3 5 12 19 10 26 7 8 6 6 7 7 11 2 3 8 24 26 23 21 20 18 15
12 14 14 15 15 17 15 14 10 11 12 9 9 6 8 3 5 2 1 2 4 4 9 10 5 12 14 14 6 1 6 4 8 13 9 10 1 14 23 24 23 21 19 19 17
12 12 13 13 13 15 15 13 8 7 7 7 7 5 5 1 2 4 1 1 5 9 12 3 7 4 6 5 5 7 5 5 8 13 10 11 7 17 25 25 24 21 20 19 17
12 11 11 11 10 12 12 4 2 2 5 5 2 6 6 5 3 3 3 3 5 6 4 3 3 9 20 4 2 9 6 6 5 7 7 14 10 15 25 24 24 24 23 19 17
11 11 9 8 7 7 9 5 9 4 7 9 16 19 13 11 3 3 3 4 3 4 4 3 5 10 9 3 7 7 5 4 3 4 13 6 17 7 26 32 31 28 25 22 19
12 10 8 6 5 2 4 5 7 4 3 7 11 12 10 7 4 4 5 4 3 4 3 5 1 12 9 7 4 2 3 5 2 7 2 5 7 8 13 21 22 23 24 22 23
12 11 7 4 3 1 1 4 5 5 3 5 4 4 12 7 3 9 6 3 2 6 6 2 3 7 7 5 6 5 4 7 14 9 3 4 5 6 11 16 18 23 25 25 24
12 12 8 7 3 3 3 2 3 3 1 2 3 2 8 10 5 3 7 4 4 4 3 4 5 5 4 3 4 2 6 6 4 3 2 4 4 3 2 11 19 21 25 25 25
13 13 10 9 8 3 2 1 1 3 5 1 2 3 4 1 3 5 4 4 5 3 4 2 2 1 3 4 2 13 6 6 4 2 3 2 5 4 4 4 4 19 25 26 27
14 14 13 11 7 7 3 4 3 3 4 2 2 3 3 3 1 2 3 3 4 4 2 2 2 1 5 7 3 3 4 1 1 2 4 1 5 7 3 5 5 18 25 26 27
14 14 14 13 8 6 4 3 3 2 4 4 3 2 5 5 2 2 4 3 1 3 3 6 3 5 2 2 5 3 3 4 4 3 1 3 5 2 1 7 8 8 17 23 26
13 12 13 13 11 5 4 2 5 4 3 6 3 1 2 2 4 2 4 5 6 8 4 5 2 1 3 2 1 4 4 2 5 2 1 2 4 3 2 3 5 11 16 21 24
11 10 9 12 8 5 3 3 2 3 4 2 2 1 2 2 3 5 6 3 5 7 3 6 3 1 1 3 6 2 7 3 1 3 4 2 5 3 2 5 6 10 15 20 24
11 7 4 12 8 4 3 4 3 4 6 4 4 4 3 4 3 3 2 2 4 4 3 4 3 0 2 4 7 3 2 4 3 2 2 2 3 3 2 2 10 14 17 22 26
12 3 5 16 5 2 3 4 2 3 7 5 3 3 3 6 3 3 5 3 1 8 7 2 4 3 3 1 2 3 4 5 3 4 1 0 5 1 4 5 8 13 17 20 24
11 5 6 18 3 1 2 2 3 5 4 5 3 4 2 3 4 3 5 6 4 2 7 7 1 3 1 1 1 4 5 4 5 3 6 3 3 1 3 2 4 14 16 21 24
6 2 3 7 4 5 3 0 2 3 4 4 5 0 3 4 1 4 6 3 8 4 2 5 3 6 8 4 4 5 6 7 5 3 5 6 3 4 4 4 7 11 16 21 24
4 3 6 4 4 2 5 4 6 4 3 2 0 2 3 3 5 2 2 5 3 2 3 1 5 2 3 2 2 3 7 11 8 5 6 2 6 4 2 2 10 13 17 20 23
5 4 5 4 7 11 0 5 5 4 3 3 3 7 7 6 6 13 3 3 6 2 1 2 3 2 0 2 0 3 4 10 5 3 6 3 5 2 3 9 12 16 19 21 24
5 7 4 1 5 6 7 4 6 5 6 3 1 2 4 5 7 11 11 6 4 3 4 2 5 3 3 2 2 5 8 10 5 4 5 5 3 5 4 7 12 16 18 22 23
Wind_Direction
275 282 296 300 309 319 325 328 337 337 336 336 339 340 340 344 3 26 55 21 5 5 4 174 145 127 124 98 90 110 95 155 153 165 146 157 136 83 96 131 96 168 146 148 151
276 277 285 294 300 310 316 320 331 333 333 333 336 336 337 350 21 62 42 7 352 356 359 146 153 138 89 86 56 63 110 157 156 140 146 147 126 129 111 115 102 106 128 147 153
274 278 281 286 293 301 308 313 323 330 331 331 333 333 330 345 103 78 31 2 351 360 354 26 137 128 77 61 33 48 108 137 110 124 136 130 114 118 129 124 159 148 147 158 161
272 277 280 283 288 294 302 308 317 325 326 328 333 331 318 255 175 106 21 14 6 7 346 283 164 90 75 75 68 102 54 119 131 131 119 131 124 132 6 159 154 151 154 160 160
270 275 279 283 285 289 296 303 309 315 319 323 330 332 329 241 235 244 10 7 24 5 350 260 146 107 98 99 90 95 108 83 116 124 110 126 120 127 111 142 153 154 158 160 163
268 273 278 281 285 287 291 297 302 306 309 315 323 329 327 265 204 247 316 11 47 50 31 198 142 112 85 52 44 108 106 110 100 104 121 124 130 128 158 154 154 161 163 168 170
264 271 277 280 284 287 290 292 297 301 300 306 314 319 299 254 204 286 307 336 64 69 55 85 101 136 104 93 110 111 102 93 97 110 114 126 180 220 166 166 159 166 169 173 169
266 268 276 281 284 289 290 291 293 296 295 298 303 308 274 278 230 285 339 13 112 82 97 106 118 101 94 124 115 107 96 135 182 153 163 200 205 177 169 170 169 169 172 174 171
271 272 273 282 288 290 294 291 293 293 294 291 295 295 275 286 211 218 332 91 164 128 132 124 123 98 122 125 111 42 161 148 175 205 167 219 212 176 177 180 178 179 177 178 177
263 277 276 281 295 297 304 297 286 285 283 280 265 288 273 268 204 185 206 149 147 142 137 139 87 106 142 182 175 178 166 183 184 193 193 195 227 174 184 189 190 189 186 184 182
259 270 281 279 300 312 322 311 271 242 251 237 215 251 299 350 275 210 188 167 164 163 152 103 134 180 182 182 150 148 146 175 211 174 167 215 240 186 191 200 199 197 193 189 183
253 260 277 280 302 326 347 51 29 294 312 250 254 254 266 290 299 235 205 180 158 167 134 117 210 207 159 107 106 138 147 188 82 157 197 199 245 211 198 210 207 199 196 191 186
246 249 264 272 293 329 7 28 346 330 266 284 242 248 237 227 242 234 199 168 136 143 167 177 261 143 161 181 165 146 182 173 168 115 142 142 254 219 218 217 214 208 203 196 196
236 237 242 242 268 210 149 338 327 325 22 268 235 244 197 192 259 224 208 194 68 174 149 137 140 138 151 194 177 249 174 146 141 150 212 199 276 241 215 216 215 202 195 196 196
226 226 220 198 169 138 164 260 304 326 354 238 205 286 180 173 149 166 180 181 168 153 163 183 160 148 145 198 141 162 137 127 138 121 152 180 268 246 147 231 222 206 199 197 199
217 212 208 200 204 204 197 180 250 44 250 300 195 162 119 205 144 132 159 140 113 93 40 86 70 85 130 71 104 146 97 65 66 92 249 225 225 262 205 227 245 206 203 194 194
209 206 201 190 190 206 215 160 60 177 339 312 232 162 137 160 178 139 153 148 167 134 156 39 356 29 125 92 74 101 115 315 275 189 248 145 189 277 223 253 265 207 200 191 191
207 204 203 188 188 198 186 65 170 261 278 325 6 49 183 159 193 127 121 188 206 95 135 162 211 177 175 152 173 174 168 169 247 218 268 149 238 257 259 306 272 220 187 181 184
201 202 207 188 197 192 165 140 201 227 308 333 314 119 264 245 161 154 195 199 202 177 187 167 200 26 48 128 164 167 196 126 108 83 233 233 264 207 261 40 124 147 165 175 178
189 185 203 189 192 172 85 222 225 242 305 339 359 45 251 255 183 176 183 203 203 187 174 188 117 359 134 107 46 173 140 128 49 227 250 232 271 260 248 213 184 178 176 174 177
158 147 189 182 158 128 174 217 279 303 344 29 18 342 343 325 228 221 213 242 186 150 127 136 117 244 155 203 177 148 173 64 115 158 229 288 251 205 231 237 210 197 182 178 179
145 108 159 164 114 84 160 202 357 330 7 29 94 65 14 341 295 254 227 272 168 156 156 174 116 161 190 223 189 190 191 165 161 189 103 16 270 149 273 287 224 180 178 181 184
142 97 144 167 152 159 239 244 348 7 12 18 26 26 353 354 344 7 344 352 310 221 169 185 143 112 31 339 218 217 188 143 107 107 187 169 260 197 319 354 170 161 173 177 180
146 112 99 183 109 151 126 82 169 318 284 242 268 242 23 22 311 317 336 328 329 298 289 140 149 174 211 190 140 195 178 175 146 158 159 228 268 240 256 227 152 163 171 176 177
148 159 160 163 189 133 173 194 181 246 241 237 24 169 113 318 343 247 231 308 286 283 325 155 208 134 35 16 192 198 180 181 198 160 190 200 205 282 345 261 177 166 165 168 175
158 137 140 116 159 176 159 212 172 215 215 256 261 274 271 253 233 287 221 192 247 337 245 307 198 126 68 356 32 224 179 190 199 181 255 206 261 93 70 116 145 168 170 172 180
181 146 144 54 113 150 213 198 211 239 282 249 359 323 333 279 284 269 246 245 255 274 201 199 145 130 220 16 12 290 221 189 179 174 156 192 196 161 143 154 169 172 177 181 185